TimePST,TemperatureF,Dew PointF,Humidity,Sea Level PressureIn,VisibilityMPH,Wind Direction,Wind SpeedMPH,Gust SpeedMPH,PrecipitationIn,Events,Conditions,WindDirDegrees,DateUTC
1:56 AM,15.1,10.9,84,30.63,10.0,SE,5.8,-,N/A,,Clear,130,2013-01-16 09:56:00
2:56 AM,19.9,14.0,78,30.63,10.0,SSE,5.8,-,N/A,,Clear,150,2013-01-16 10:56:00
3:56 AM,19.9,12.9,74,30.62,10.0,SSE,4.6,-,N/A,,Clear,150,2013-01-16 11:56:00
4:56 AM,19.9,12.9,74,30.63,10.0,South,8.1,-,N/A,,Clear,170,2013-01-16 12:56:00
5:56 AM,21.0,14.0,74,30.64,10.0,Calm,Calm,-,N/A,,Clear,0,2013-01-16 13:56:00
6:56 AM,19.9,12.9,74,30.63,10.0,SSE,8.1,-,N/A,,Clear,160,2013-01-16 14:56:00
7:56 AM,21.0,12.9,71,30.66,10.0,SSE,3.5,-,N/A,,Clear,150,2013-01-16 15:56:00
8:56 AM,27.0,14.0,58,30.66,10.0,ESE,4.6,-,N/A,,Clear,120,2013-01-16 16:56:00
9:56 AM,33.1,17.1,52,30.64,10.0,SSE,4.6,-,N/A,,Clear,160,2013-01-16 17:56:00
10:56 AM,39.9,17.1,40,30.61,10.0,SE,3.5,-,N/A,,Clear,140,2013-01-16 18:56:00
11:56 AM,44.1,18.0,35,30.56,10.0,ESE,3.5,-,N/A,,Clear,110,2013-01-16 19:56:00
12:56 PM,48.0,21.0,34,30.54,10.0,East,5.8,-,N/A,,Clear,100,2013-01-16 20:56:00
1:56 PM,50.0,19.0,29,30.53,10.0,East,4.6,-,N/A,,Clear,90,2013-01-16 21:56:00
2:56 PM,52.0,19.0,27,30.51,10.0,East,3.5,-,N/A,,Clear,100,2013-01-16 22:56:00
3:56 PM,52.0,19.9,28,30.50,10.0,Calm,Calm,-,N/A,,Clear,0,2013-01-16 23:56:00
4:56 PM,39.9,19.9,45,30.53,10.0,South,4.6,-,N/A,,Clear,180,2013-01-17 00:56:00
5:56 PM,36.0,19.9,52,30.53,10.0,South,3.5,-,N/A,,Clear,170,2013-01-17 01:56:00
6:56 PM,27.0,21.0,78,30.56,10.0,Calm,Calm,-,N/A,,Clear,0,2013-01-17 02:56:00
7:56 PM,28.0,19.9,72,30.55,10.0,SE,3.5,-,N/A,,Clear,140,2013-01-17 03:56:00
8:56 PM,25.0,19.9,81,30.55,10.0,Calm,Calm,-,N/A,,Clear,0,2013-01-17 04:56:00
9:56 PM,24.1,19.0,81,30.53,10.0,Calm,Calm,-,N/A,,Clear,0,2013-01-17 05:56:00
10:56 PM,23.0,18.0,81,30.52,10.0,Calm,Calm,-,N/A,,Clear,0,2013-01-17 06:56:00
11:56 PM,21.0,18.0,88,30.52,10.0,Calm,Calm,-,N/A,,Clear,0,2013-01-17 07:56:00